Flag for U.S.A. Weather past 2 weeks in Arden-Arcade, California, U.S.A.

Now
93 °F

Sunny.


Feels Like: 90 °F
Forecast: 62 / 93 °F
Wind: 7 mph from Southwest

Location: Mather Field

Current Time: Aug 27, 2014 at 6:18:55 PM

Latest Report: Aug 27, 2014 at 5:45 PM


Visibility: 10 mi

Pressure: 29.93 "Hg

Humidity: 21%

Dew point: 48 °F

Location of Arden-ArcadeLocation

Historic Weather in Arden-Arcade — Graph

°F

Arden-Arcade temperature yesterday

Maximum temperature yesterday: 90 °F (at 3:45 PM)
Minimum temperature yesterday: 55 °F (at 5:49 AM)
Average temperature yesterday: 73 °F

Past Weeks' High & Low Weather Summary

 TemperatureHumidityPressure
High95 °F (Aug 16, 3:46 PM)100% (Aug 13, 2:55 AM)30.05 "Hg (Aug 13, 2:55 AM)
Low54 °F (Aug 18, 6:50 AM)15% (Aug 17, 5:46 PM)29.72 "Hg (Aug 18, 5:48 PM)
Average73 °F57%29.89 "Hg
* Reported Aug 12 3:53 PM — Aug 27 3:50 PM, Arden-Arcade, Weather by CustomWeather, © 2014

Note: Actual official high and low records may vary slightly from our data, if they occured in-between our weather recording intervals... More about our weather records

Advertising

Arden-Arcade weather history for previous 24 hours

 ConditionsComfort  
Time TempWeatherWind HumidityBarometerVisibility
3:50 PM
Aug 27
93 °FSunny.6 mph20%29.95 "Hg10 mi
2:57 PM93 °FSunny.7 mph21%29.97 "Hg10 mi
1:53 PM90 °FSunny.7 mph26%30.00 "Hg10 mi
12:45 PM86 °FSunny.5 mph33%30.01 "Hg10 mi
11:45 AM82 °FSunny.8 mph40%30.03 "Hg10 mi
10:50 AM77 °FSunny.5 mph47%30.05 "Hg10 mi
9:50 AM75 °FSunny.5 mph47%30.05 "Hg10 mi
8:45 AM72 °FSunny.7 mph53%30.04 "Hg10 mi
7:50 AM68 °FSunny.No wind60%30.03 "Hg10 mi
6:55 AM63 °FClear.3 mph64%30.03 "Hg10 mi
5:46 AM61 °FClear.6 mph68%30.01 "Hg10 mi
4:46 AM63 °FClear.7 mph68%29.99 "Hg10 mi
3:46 AM63 °FClear.7 mph73%29.98 "Hg10 mi
2:46 AM63 °FClear.7 mph73%29.98 "Hg10 mi
10:45 PM
Aug 26
68 °FClear.6 mph64%29.93 "Hg10 mi
9:45 PM72 °FClear.5 mph57%29.92 "Hg10 mi
8:45 PM75 °FClear.6 mph47%29.91 "Hg10 mi
7:45 PM82 °FSunny.12 mph40%29.89 "Hg10 mi
6:45 PM88 °FSunny.7 mph31%29.87 "Hg10 mi
Weather by CustomWeather, © 2014

See weather overviewHow to use our weather pages